SHT9J EGPH-EGLL

Flight info

Callsign SHT9J
Flight time 0h 58m
Altitude 31000
Route GOSAM P600 FENIK L612 NAVSO DCT AKOMU DCT VAMEB DCT NUGRA
Aircraft A320/M-SDE3FGHIRWY/LB1

Departure

Time 2026-05-01 14:12
Airport Edinburgh Airport (EGPH)

Arrival

Time 2026-05-01 15:11
Airport London Heathrow Airport (EGLL)
Time Latitude Longitude Altitude Speed Heading
2026-05-01 13:42 55.94943 -3.36360 112 ft 0 kts 148°
2026-05-01 14:04 55.94946 -3.36363 113 ft 3 kts 149°
2026-05-01 14:05 55.94967 -3.36386 113 ft 2 kts 149°
2026-05-01 14:05 55.94985 -3.36409 112 ft 4 kts 127°
2026-05-01 14:05 55.94994 -3.36448 112 ft 4 kts 76°
2026-05-01 14:05 55.94991 -3.36466 113 ft 0 kts 58°
2026-05-01 14:08 55.94991 -3.36465 113 ft 0 kts 58°
2026-05-01 14:08 55.94997 -3.36448 112 ft 4 kts 59°
2026-05-01 14:08 55.95020 -3.36398 114 ft 6 kts 33°
2026-05-01 14:09 55.95070 -3.36400 113 ft 8 kts 352°
2026-05-01 14:09 55.95117 -3.36333 114 ft 10 kts 58°
2026-05-01 14:09 55.95158 -3.36209 114 ft 13 kts 59°
2026-05-01 14:09 55.95209 -3.36060 113 ft 15 kts 58°
2026-05-01 14:10 55.95268 -3.35886 111 ft 17 kts 58°
2026-05-01 14:10 55.95335 -3.35689 115 ft 19 kts 58°
2026-05-01 14:10 55.95379 -3.35558 115 ft 12 kts 59°
2026-05-01 14:10 55.95417 -3.35447 114 ft 8 kts 58°
2026-05-01 14:11 55.95470 -3.35410 114 ft 10 kts 339°
2026-05-01 14:11 55.95573 -3.35550 113 ft 7 kts 266°
2026-05-01 14:11 55.95540 -3.35655 113 ft 17 kts 239°
2026-05-01 14:12 55.95344 -3.36234 110 ft 90 kts 238°
2026-05-01 14:12 55.94923 -3.37475 112 ft 142 kts 239°
2026-05-01 14:12 55.94355 -3.39098 413 ft 158 kts 237°
2026-05-01 14:12 55.93765 -3.40752 1107 ft 157 kts 237°
2026-05-01 14:13 55.93177 -3.42443 1562 ft 169 kts 235°
2026-05-01 14:13 55.92745 -3.43689 1717 ft 185 kts 236°
2026-05-01 14:13 55.91770 -3.46522 2074 ft 216 kts 236°
2026-05-01 14:13 55.90937 -3.48932 2530 ft 239 kts 237°
2026-05-01 14:14 55.90317 -3.51752 3286 ft 253 kts 257°
2026-05-01 14:14 55.90015 -3.54866 4237 ft 257 kts 257°
2026-05-01 14:14 55.89715 -3.57978 5194 ft 260 kts 257°
2026-05-01 14:14 55.89403 -3.61186 5907 ft 264 kts 257°
2026-05-01 14:15 55.89086 -3.64420 6805 ft 266 kts 257°
2026-05-01 14:15 55.88763 -3.67695 7632 ft 269 kts 257°
2026-05-01 14:15 55.88433 -3.70995 8455 ft 272 kts 257°
2026-05-01 14:15 55.88097 -3.74329 9277 ft 275 kts 256°
2026-05-01 14:16 55.87756 -3.77711 10077 ft 278 kts 256°
2026-05-01 14:16 55.87410 -3.81141 10540 ft 295 kts 257°
2026-05-01 14:16 55.87034 -3.84879 10749 ft 318 kts 257°
2026-05-01 14:16 55.86381 -3.88754 10986 ft 333 kts 240°
2026-05-01 14:17 55.84951 -3.92002 11534 ft 337 kts 219°
2026-05-01 14:17 55.82918 -3.94068 12155 ft 339 kts 198°
2026-05-01 14:17 55.80629 -3.95116 12905 ft 339 kts 194°
2026-05-01 14:17 55.78323 -3.96066 13675 ft 340 kts 193°
2026-05-01 14:18 55.76034 -3.96985 14310 ft 342 kts 193°
2026-05-01 14:18 55.73702 -3.97912 14887 ft 345 kts 193°
2026-05-01 14:18 55.71350 -3.98845 15436 ft 348 kts 193°
2026-05-01 14:18 55.69755 -3.99482 15804 ft 350 kts 193°
2026-05-01 14:19 55.66590 -4.00759 16532 ft 354 kts 193°
2026-05-01 14:19 55.64174 -4.01738 17079 ft 357 kts 193°
2026-05-01 14:19 55.61743 -4.02722 17654 ft 360 kts 193°
2026-05-01 14:19 55.59319 -4.03704 18214 ft 363 kts 193°
2026-05-01 14:20 55.56845 -4.04705 18725 ft 366 kts 193°
2026-05-01 14:20 55.51800 -4.06337 19749 ft 371 kts 182°
2026-05-01 14:20 55.49211 -4.06019 20279 ft 375 kts 171°
2026-05-01 14:21 55.46720 -4.04773 20778 ft 379 kts 160°
2026-05-01 14:21 55.44324 -4.02623 21247 ft 383 kts 153°
2026-05-01 14:21 55.42013 -4.00357 21730 ft 386 kts 153°
2026-05-01 14:22 55.37286 -3.95776 22649 ft 390 kts 154°
2026-05-01 14:22 55.34899 -3.93478 23126 ft 392 kts 154°
2026-05-01 14:22 55.32490 -3.91164 23589 ft 395 kts 154°
2026-05-01 14:22 55.30074 -3.88843 23983 ft 397 kts 154°
2026-05-01 14:23 55.27646 -3.86506 24348 ft 399 kts 154°
2026-05-01 14:23 55.25196 -3.84149 24635 ft 403 kts 153°
2026-05-01 14:23 55.22747 -3.81797 24918 ft 408 kts 153°
2026-05-01 14:23 55.20235 -3.79457 25225 ft 410 kts 155°
2026-05-01 14:24 55.17681 -3.77208 25565 ft 412 kts 156°
2026-05-01 14:24 55.15091 -3.75010 25916 ft 414 kts 156°
2026-05-01 14:24 55.12482 -3.72828 26278 ft 416 kts 156°
2026-05-01 14:24 55.09866 -3.70638 26652 ft 418 kts 156°
2026-05-01 14:25 55.07264 -3.68444 27005 ft 420 kts 156°
2026-05-01 14:25 55.04630 -3.66206 27337 ft 422 kts 156°
2026-05-01 14:25 55.01986 -3.63949 27679 ft 424 kts 156°
2026-05-01 14:25 54.99333 -3.61682 28067 ft 425 kts 156°
2026-05-01 14:26 54.96684 -3.59419 28557 ft 423 kts 156°
2026-05-01 14:26 54.91401 -3.54919 29531 ft 420 kts 156°
2026-05-01 14:26 54.88781 -3.52696 30021 ft 419 kts 156°
2026-05-01 14:27 54.86157 -3.50474 30458 ft 418 kts 156°
2026-05-01 14:27 54.83579 -3.48293 30857 ft 417 kts 156°
2026-05-01 14:27 54.80954 -3.46075 31101 ft 418 kts 156°
2026-05-01 14:28 54.72985 -3.39378 31144 ft 427 kts 156°
2026-05-01 14:28 54.67623 -3.34885 31144 ft 428 kts 156°
2026-05-01 14:29 54.62294 -3.30420 31152 ft 428 kts 156°
2026-05-01 14:30 54.51569 -3.21490 31110 ft 427 kts 156°
2026-05-01 14:31 54.43551 -3.14833 31119 ft 429 kts 156°
2026-05-01 14:31 54.38173 -3.10391 31132 ft 429 kts 156°
2026-05-01 14:32 54.32787 -3.05965 31123 ft 429 kts 156°
2026-05-01 14:32 54.27393 -3.01541 31133 ft 429 kts 156°
2026-05-01 14:33 54.22001 -2.97135 31141 ft 430 kts 156°
2026-05-01 14:33 54.16636 -2.92767 31135 ft 429 kts 157°
2026-05-01 14:34 54.11180 -2.88645 31137 ft 429 kts 159°
2026-05-01 14:34 54.05670 -2.84732 31136 ft 428 kts 159°
2026-05-01 14:35 54.00144 -2.80861 31145 ft 428 kts 162°
2026-05-01 14:35 53.94505 -2.77854 31137 ft 427 kts 164°
2026-05-01 14:36 53.88825 -2.74833 31146 ft 427 kts 164°
2026-05-01 14:36 53.84113 -2.72327 31145 ft 426 kts 164°
2026-05-01 14:37 53.78445 -2.69343 31137 ft 426 kts 164°
2026-05-01 14:37 53.71870 -2.65870 31148 ft 426 kts 164°
2026-05-01 14:38 53.67132 -2.63391 31145 ft 426 kts 165°
2026-05-01 14:38 53.61499 -2.60459 31144 ft 425 kts 165°
2026-05-01 14:39 53.55839 -2.57520 31125 ft 425 kts 165°
2026-05-01 14:39 53.50157 -2.54576 31127 ft 426 kts 165°
2026-05-01 14:40 53.44510 -2.51647 31127 ft 427 kts 165°
2026-05-01 14:40 53.38822 -2.48714 31121 ft 427 kts 165°
2026-05-01 14:41 53.33163 -2.45796 31120 ft 428 kts 165°
2026-05-01 14:41 53.27469 -2.42863 31124 ft 428 kts 165°
2026-05-01 14:42 53.21772 -2.39944 31131 ft 428 kts 165°
2026-05-01 14:42 53.16109 -2.37055 31139 ft 427 kts 165°
2026-05-01 14:43 53.10413 -2.34161 31143 ft 427 kts 165°
2026-05-01 14:43 53.04736 -2.31252 31143 ft 427 kts 162°
2026-05-01 14:44 52.99477 -2.26720 31149 ft 431 kts 150°
2026-05-01 14:44 52.91863 -2.18712 31150 ft 430 kts 150°
2026-05-01 14:45 52.84296 -2.10829 31154 ft 430 kts 150°
2026-05-01 14:46 52.79229 -2.05557 31148 ft 430 kts 150°
2026-05-01 14:46 52.71636 -1.97662 31125 ft 429 kts 150°
2026-05-01 14:47 52.66573 -1.92432 31132 ft 429 kts 150°
2026-05-01 14:48 52.58994 -1.84644 30234 ft 432 kts 151°
2026-05-01 14:48 52.56424 -1.82005 29081 ft 438 kts 150°
2026-05-01 14:48 52.51252 -1.76688 27547 ft 432 kts 150°
2026-05-01 14:49 52.46236 -1.71551 26275 ft 422 kts 150°
2026-05-01 14:49 52.41299 -1.66518 25023 ft 414 kts 150°
2026-05-01 14:50 52.37261 -1.62413 24018 ft 408 kts 150°
2026-05-01 14:50 52.31684 -1.56764 22549 ft 397 kts 150°
2026-05-01 14:51 52.29346 -1.54398 21965 ft 392 kts 150°
2026-05-01 14:51 52.24759 -1.49753 20853 ft 383 kts 150°
2026-05-01 14:52 52.20436 -1.44913 19879 ft 378 kts 142°
2026-05-01 14:52 52.18431 -1.42090 19513 ft 383 kts 142°
2026-05-01 14:52 52.14386 -1.36447 18732 ft 381 kts 142°
2026-05-01 14:53 52.12372 -1.33647 18331 ft 379 kts 142°
2026-05-01 14:53 52.10372 -1.30870 17928 ft 377 kts 142°
2026-05-01 14:53 52.08383 -1.28108 17544 ft 374 kts 142°
2026-05-01 14:53 52.06434 -1.25396 17273 ft 362 kts 142°
2026-05-01 14:54 52.04518 -1.22734 16791 ft 363 kts 142°
2026-05-01 14:54 52.02607 -1.20089 16383 ft 366 kts 142°
2026-05-01 14:54 52.00662 -1.17402 16009 ft 366 kts 142°
2026-05-01 14:54 51.98730 -1.14739 15637 ft 364 kts 142°
2026-05-01 14:55 51.96796 -1.12074 15270 ft 362 kts 142°
2026-05-01 14:55 51.94875 -1.09423 14712 ft 363 kts 142°
2026-05-01 14:55 51.92937 -1.06755 13764 ft 370 kts 142°
2026-05-01 14:55 51.90961 -1.04034 12813 ft 375 kts 142°
2026-05-01 14:56 51.88994 -1.01329 12229 ft 366 kts 142°
2026-05-01 14:56 51.87078 -0.98699 11142 ft 358 kts 142°
2026-05-01 14:56 51.85404 -0.95829 10649 ft 339 kts 129°
2026-05-01 14:56 51.84235 -0.92680 10521 ft 315 kts 120°
2026-05-01 14:57 51.83303 -0.89619 10331 ft 294 kts 120°
2026-05-01 14:57 51.81554 -0.83877 9946 ft 283 kts 120°
2026-05-01 14:57 51.80678 -0.81026 9821 ft 283 kts 120°
2026-05-01 14:58 51.79799 -0.78170 9692 ft 282 kts 121°
2026-05-01 14:58 51.78926 -0.75334 9561 ft 281 kts 121°
2026-05-01 14:58 51.78054 -0.72503 9386 ft 281 kts 121°
2026-05-01 14:58 51.77182 -0.69679 9036 ft 280 kts 121°
2026-05-01 14:59 51.76311 -0.66870 8670 ft 280 kts 120°
2026-05-01 14:59 51.75447 -0.64096 8300 ft 281 kts 120°
2026-05-01 14:59 51.74565 -0.61267 7949 ft 281 kts 120°
2026-05-01 14:59 51.73689 -0.58454 7602 ft 281 kts 120°
2026-05-01 15:00 51.71915 -0.52902 7121 ft 272 kts 124°
2026-05-01 15:00 51.70909 -0.50309 7143 ft 272 kts 126°
2026-05-01 15:00 51.69912 -0.47767 7144 ft 272 kts 126°
2026-05-01 15:01 51.68899 -0.45200 7144 ft 271 kts 126°
2026-05-01 15:01 51.67886 -0.42639 7144 ft 271 kts 126°
2026-05-01 15:01 51.66866 -0.40081 7143 ft 271 kts 126°
2026-05-01 15:01 51.65847 -0.37514 7132 ft 272 kts 126°
2026-05-01 15:02 51.64830 -0.34945 7126 ft 272 kts 126°
2026-05-01 15:02 51.64154 -0.33243 7143 ft 272 kts 126°
2026-05-01 15:02 51.62784 -0.29800 7144 ft 273 kts 126°
2026-05-01 15:02 51.61770 -0.27265 7144 ft 272 kts 126°
2026-05-01 15:03 51.60746 -0.24709 7144 ft 271 kts 126°
2026-05-01 15:03 51.59723 -0.22158 7131 ft 270 kts 126°
2026-05-01 15:03 51.58722 -0.19665 7035 ft 261 kts 126°
2026-05-01 15:03 51.57767 -0.17244 6915 ft 252 kts 126°
2026-05-01 15:04 51.56842 -0.14890 6795 ft 245 kts 126°
2026-05-01 15:04 51.55952 -0.12591 6629 ft 240 kts 126°
2026-05-01 15:04 51.55083 -0.10349 6389 ft 238 kts 127°
2026-05-01 15:04 51.53959 -0.08509 6136 ft 227 kts 155°
2026-05-01 15:05 51.52467 -0.07802 5780 ft 224 kts 177°
2026-05-01 15:05 51.50933 -0.08025 5499 ft 220 kts 197°
2026-05-01 15:05 51.49568 -0.09078 5178 ft 214 kts 216°
2026-05-01 15:05 51.48570 -0.10739 5030 ft 201 kts 234°
2026-05-01 15:06 51.47994 -0.12678 4899 ft 191 kts 250°
2026-05-01 15:06 51.47806 -0.14757 4665 ft 188 kts 266°
2026-05-01 15:06 51.47806 -0.16847 4393 ft 184 kts 265°
2026-05-01 15:06 51.47808 -0.18820 4255 ft 171 kts 264°
2026-05-01 15:07 51.47807 -0.20688 3977 ft 164 kts 264°
2026-05-01 15:07 51.47805 -0.22501 3612 ft 161 kts 263°
2026-05-01 15:07 51.47802 -0.24291 3220 ft 160 kts 265°
2026-05-01 15:07 51.47800 -0.26045 2906 ft 156 kts 264°
2026-05-01 15:08 51.47798 -0.27793 2441 ft 157 kts 264°
2026-05-01 15:08 51.47795 -0.29560 1986 ft 158 kts 265°
2026-05-01 15:08 51.47792 -0.31318 1659 ft 158 kts 265°
2026-05-01 15:08 51.47789 -0.33058 1417 ft 157 kts 265°
2026-05-01 15:09 51.47786 -0.34808 1177 ft 153 kts 265°
2026-05-01 15:09 51.47784 -0.36429 968 ft 142 kts 265°
2026-05-01 15:09 51.47779 -0.38004 774 ft 140 kts 267°
2026-05-01 15:09 51.47775 -0.39585 577 ft 142 kts 267°
2026-05-01 15:10 51.47771 -0.41158 384 ft 143 kts 264°
2026-05-01 15:10 51.47769 -0.44331 99 ft 135 kts 262°
2026-05-01 15:10 51.47758 -0.45624 85 ft 92 kts 270°
2026-05-01 15:11 51.47755 -0.46082 89 ft 12 kts 272°
2026-05-01 15:11 51.47646 -0.46082 86 ft 9 kts 147°
2026-05-01 15:11 51.47595 -0.46122 87 ft 11 kts 259°
2026-05-01 15:12 51.47594 -0.46255 89 ft 13 kts 270°
2026-05-01 15:12 51.47592 -0.46605 86 ft 18 kts 269°
2026-05-01 15:12 51.47591 -0.46791 86 ft 13 kts 269°
2026-05-01 15:13 51.47582 -0.47361 89 ft 21 kts 270°
2026-05-01 15:14 51.47580 -0.47886 88 ft 26 kts 269°
2026-05-01 15:14 51.47579 -0.48090 88 ft 17 kts 272°
2026-05-01 15:14 51.47574 -0.48430 86 ft 9 kts 252°
2026-05-01 15:15 51.47487 -0.48575 87 ft 11 kts 270°
2026-05-01 15:15 51.47486 -0.48827 87 ft 8 kts 270°
2026-05-01 15:16 51.47428 -0.48891 86 ft 6 kts 180°
2026-05-01 15:16 51.47404 -0.48891 87 ft 0 kts 180°